Details From NWWW - Noumea La Tontouta
To NTAA - Faaa
Flight Number -
Tags Generated
Created
Modified
Stats Distance 2,504 nm / 4,637 km
Max Altitude 0 ft / 0 m
Waypoints 5
Social Downloads 1
Likes 0
Share VATSIM

Download

Looking for another format? Having issues loading an existing format? Contact us
Advertisement - Login to hide

Notes

Generated

Route

NWWW DOGSA TAPAP ATAMU NTAA

ID Type Via Altitude Latitude Longitude Leg Dist Tot Dist Heading (true) Name
O NWWW APT - 0 ft / 0 m -22.00756˚ 166.20102˚ - 0 nm - -
DOGSA FIX - 0 ft / 0 m -20.42569˚ -165.00000˚ 1612 nm 1612 nm 92° / 81° -
TAPAP FIX - 0 ft / 0 m -18.00667˚ -151.64833˚ 770 nm 2383 nm 81° / 77° -
ATAMU FIX - 0 ft / 0 m -17.52806˚ -149.69528˚ 115 nm 2498 nm 76° / 75° -
O NTAA APT - 0 ft / 0 m -17.56288˚ -149.62043˚ 4 nm 2503 nm 116° / 116° -

Altitude Profile

Advertisement - Login to hide

Weather


0- 5 10 15 20 25 30 35+ Temperature / ° C

Clouds and Precipitation
Forecast for 2018-05-25 00:00 UTC. Updated 2 hours ago

Ground ~20,000 ft ~40,000 ft Winds

NWWW

Details ICAO NWWW (NOU)
Name Noumea La Tontouta
Region New Caledonia
Timezone Pacific/Noumea (UTC+11.0)
Stats Elevation 51 ft / 16 m (AMSL)
Location -22.014529° 166.213022°
Runways 1
Magnetic Variation 12.347° E

METAR

NWWW 250130Z AUTO 20013KT 9999 BKN054 OVC092 24/17 Q1015 NOSIG

Decode

TAF

TAF NWWW 242300Z 2500/2524 VRB02KT 9999 SCT035 BECMG 2500/2502 15012KT BECMG 2505/2507 VRB02KT

Decode

Departure Runways

ID Width Length Bearing (true) Bearing (mag) Surface Threshold Offset Overrun Length
11 148 ft / 45 m 10,666 ft / 3,251 m 121.21° 108.86° Asphalt 0 ft / 0 m 338 ft / 103 m
29 148 ft / 45 m 10,666 ft / 3,251 m 301.19° 288.84° Asphalt 0 ft / 0 m 354 ft / 108 m

NTAA

Details ICAO NTAA (PPT)
Name Faaa
Region French Polynesia
Timezone Pacific/Tahiti (UTC-10.0)
Stats Elevation 5 ft / 2 m (AMSL)
Location -17.553765° -149.607255°
Runways 1
Magnetic Variation 12.876° E

METAR

NTAA 250130Z 24004KT 200V290 9999 FEW023 30/22 Q1013 NOSIG

Decode

TAF

TAF NTAA 242300Z 2500/2606 VRB05KT 9999 FEW023 SCT050

Decode

Destination Runways

ID Width Length Bearing (true) Bearing (mag) Surface Threshold Offset Overrun Length
04 148 ft / 45 m 11,323 ft / 3,451 m 54.04° 41.16° Asphalt 1,099 ft / 335 m 0 ft / 0 m
22 148 ft / 45 m 11,323 ft / 3,451 m 234.03° 221.15° Asphalt 479 ft / 146 m 0 ft / 0 m

Approach Navaids

Runway Type Ident Frequency Range Bearing (true) Bearing (mag) Slope Elevation
04 Localiser PT 109.90 MHz 18 nm / 33 km 54.05° 41.18° - 20 ft / 6 m (AMSL)
04 Glidescope PT 109.90 MHz 10 nm / 19 km 54.03° 41.16° 3.00° 59 ft / 18 m (AMSL)
04 DME PT 109.90 MHz 18 nm / 33 km - - - 59 ft / 18 m (AMSL)

Popular Alternatives